Date,TemperatureHighF,TemperatureAvgF,TemperatureLowF,DewpointHighF,DewpointAvgF,DewpointLowF,HumidityHigh,HumidityAvg,HumidityLow,PressureMaxIn,PressureMinIn,WindSpeedMaxMPH,WindSpeedAvgMPH,GustSpeedMaxMPH,PrecipitationSumIn
2014-1-1,50,43,38,48,42,37,99,97,94,30.32,30.19,2,0,5,0.01
2014-1-2,54,46,40,47,43,39,99,90,71,30.21,30.03,5,1,13,0.43
2014-1-3,49,43,35,46,40,33,97,90,77,30.31,30.10,7,1,13,0.01
2014-1-4,50,37,30,38,33,29,98,87,54,30.37,30.27,2,0,4,0.01
2014-1-5,55,41,31,41,33,22,96,76,28,30.33,30.13,4,0,12,0.00
2014-1-6,56,47,40,42,37,22,89,69,27,30.18,30.11,7,1,12,0.07
2014-1-7,54,49,45,48,44,35,98,85,50,30.11,29.98,11,4,23,0.89
2014-1-8,50,48,46,49,47,44,98,96,90,30.05,29.81,9,3,31,0.65
2014-1-9,50,47,45,49,46,43,98,96,93,30.07,29.88,9,2,30,0.35
2014-1-10,53,50,48,51,48,44,97,94,86,30.15,29.71,13,4,37,0.17
2014-1-11,53,48,45,51,46,42,97,91,79,30.06,29.57,13,6,36,0.56
2014-1-12,50,48,45,49,47,42,98,95,82,30.50,30.06,6,2,13,0.59
2014-1-13,50,48,46,49,47,44,98,96,93,30.66,30.50,4,0,8,0.01
2014-1-14,51,44,39,49,43,38,99,96,89,30.65,30.51,2,0,4,0.01
2014-1-15,48,41,36,47,40,35,99,97,92,30.53,30.37,2,0,6,0.02
2014-1-16,53,41,33,48,39,33,99,93,64,30.39,30.18,2,0,4,0.01
2014-1-17,57,43,37,47,40,35,96,89,58,30.18,30.08,3,0,6,0.01
2014-1-18,50,45,39,45,42,38,98,92,84,30.25,30.12,4,1,11,0.00
2014-1-19,48,42,37,46,41,36,99,95,85,30.18,30.10,2,0,5,0.01
2014-1-20,55,43,35,47,40,34,99,92,66,30.22,30.14,2,0,3,0.01
2014-1-21,49,43,36,46,42,35,99,94,83,30.35,30.18,4,1,13,0.02
2014-1-22,49,45,38,48,44,37,98,97,91,30.38,30.28,4,0,13,0.03
2014-1-23,60,48,37,44,38,30,98,71,38,30.29,30.15,17,2,24,0.01
2014-1-24,66,52,42,41,33,24,80,51,23,30.28,30.16,23,3,33,0.00
2014-1-25,53,45,38,47,41,33,97,86,61,30.32,30.19,2,0,4,0.00
2014-1-26,52,43,36,46,40,36,98,91,68,30.19,30.01,2,0,5,0.01
2014-1-27,47,44,39,46,42,38,98,95,83,30.17,30.04,2,0,6,0.06
2014-1-28,52,49,46,51,48,45,98,95,90,30.17,29.91,6,2,18,1.00
2014-1-29,51,48,44,50,47,43,99,96,88,29.97,29.76,6,3,19,0.62
2014-1-30,48,46,43,44,42,40,95,88,78,29.99,29.94,6,2,11,0.27
2014-1-31,50,44,41,46,42,39,97,93,84,30.15,29.98,6,1,15,0.73
2014-2-1,50,43,36,44,40,34,97,88,62,30.16,30.00,6,1,10,0.09
2014-2-2,49,41,35,42,38,34,98,90,74,30.00,29.93,5,1,10,0.05
2014-2-3,43,38,34,41,36,33,97,93,82,30.13,29.99,8,1,11,0.14
2014-2-4,42,36,32,37,31,20,95,84,59,30.26,30.13,10,1,18,0.01
2014-2-5,37,31,27,22,13,5,72,47,35,30.29,30.09,15,5,27,0.00
2014-2-6,29,26,23,24,16,5,93,70,38,30.09,29.65,10,1,22,0.00
2014-2-7,37,31,26,34,28,23,95,87,74,29.84,29.57,9,1,16,0.32
2014-2-8,39,36,34,38,34,32,97,92,86,29.92,29.60,24,2,36,0.51
2014-2-9,53,43,37,48,41,36,98,93,78,30.02,29.91,5,1,13,0.02
2014-2-10,51,49,42,50,46,40,98,93,74,30.14,30.00,8,4,23,0.35
2014-2-11,50,49,48,50,48,47,99,97,93,30.14,29.64,16,5,45,0.83
2014-2-12,52,50,47,51,49,47,99,98,91,29.92,29.64,13,2,41,0.24
2014-2-13,54,50,47,51,47,41,99,88,63,30.13,29.67,15,3,27,0.40
2014-2-14,53,50,46,52,48,42,97,93,86,29.96,29.67,13,2,30,0.10
2014-2-15,53,49,44,52,46,40,97,91,78,29.89,29.29,18,6,46,0.93
2014-2-16,50,47,42,47,42,37,96,83,72,30.01,29.76,13,6,40,0.16
2014-2-17,52,48,44,48,46,43,99,94,84,29.97,29.74,8,2,22,1.33
2014-2-18,50,48,42,50,45,38,98,89,73,29.99,29.73,13,4,29,1.35
2014-2-19,50,45,42,45,41,37,95,86,72,30.20,29.99,8,2,17,0.13
2014-2-20,49,47,44,48,45,43,98,94,85,30.28,30.16,5,1,13,0.20
2014-2-21,51,42,40,47,41,35,99,95,68,30.31,30.23,8,1,16,0.03
2014-2-22,51,42,36,41,36,33,95,79,64,30.24,30.04,8,3,12,0.00
2014-2-23,50,42,32,47,40,32,98,93,74,30.05,29.91,6,1,15,0.12
2014-2-24,56,52,48,55,50,47,98,95,91,29.97,29.92,5,1,14,0.09
2014-2-25,62,52,47,52,46,40,99,81,51,29.96,29.84,7,1,12,0.00
2014-2-26,57,48,41,49,43,38,94,80,70,29.85,29.59,10,1,15,0.00
2014-2-27,52,48,44,51,46,40,98,93,82,29.71,29.56,2,0,5,0.13
2014-2-28,64,53,44,53,47,40,99,82,48,29.68,29.36,7,1,14,0.01
2014-3-1,53,51,42,48,46,40,95,86,70,29.60,29.43,8,3,17,0.00
2014-3-2,53,52,49,51,49,48,97,89,85,29.81,29.58,9,3,21,0.49
2014-3-3,52,51,48,52,50,48,98,97,93,29.96,29.68,8,2,21,0.69
2014-3-4,56,52,48,53,50,47,97,92,84,29.99,29.75,8,3,20,0.11
2014-3-5,56,54,52,55,52,50,99,96,86,29.75,29.46,11,6,35,2.32
2014-3-6,54,51,49,52,50,48,97,95,86,30.16,29.50,10,4,36,0.59
2014-3-7,58,51,45,54,49,44,98,91,80,30.26,30.06,4,1,10,0.02
2014-3-8,56,51,44,55,49,43,99,92,62,30.07,29.78,15,5,35,1.72
2014-3-9,55,52,50,54,51,49,99,98,94,30.04,29.92,3,1,9,0.83
2014-3-10,51,48,41,50,46,40,98,93,84,30.49,29.99,8,3,14,0.11
2014-3-11,56,46,37,49,43,36,97,87,68,30.54,30.33,4,1,7,0.00
2014-3-12,59,47,37,51,44,36,99,88,71,30.33,30.16,4,1,8,0.01
2014-3-13,56,47,37,50,45,36,98,92,77,30.17,30.05,3,1,11,0.05
2014-3-14,62,55,50,60,54,48,98,96,91,30.32,30.01,6,1,19,0.44
2014-3-15,60,59,58,57,55,54,90,88,87,30.28,30.21,0,0,0,0.00
2014-3-22,64,53,48,56,43,38,77,69,65,30.12,30.07,0,0,0,0.00
2014-3-23,54,53,51,45,42,40,72,68,65,30.14,30.01,0,0,0,0.00
2014-3-24,61,55,51,53,46,43,78,73,67,30.01,29.70,0,0,0,0.00
2014-3-25,59,57,55,51,48,46,76,70,67,29.69,29.38,0,0,0,0.00
2014-3-26,58,55,53,50,47,45,78,74,72,29.47,29.32,0,0,0,0.00
2014-3-27,58,56,53,52,48,46,80,75,74,29.69,29.36,0,0,0,0.00
2014-3-28,71,56,54,56,48,46,77,74,54,29.67,29.50,0,0,7,0.11